Regional Weather Roundup
Issued by NWS Northern Indiana

Home | Current Version | Previous Version | Text Only | Print | Product List | Glossary Off
Versions: 1 2 3 4 5 6 7 8 9 10 11 12 13 14 15 16 17 18 19 20 21 22 23 24 25 26 27 28 29 30 31 32 33 34 35 36 37 38 39 40 41 42 43 44 45 46 47 48 49 50

975
ASUS43 KIWX 172310
RWRIWX

KIWX WEATHER ROUNDUP
NATIONAL WEATHER SERVICE NORTHERN INDIANA
700 PM EDT TUE OCT 17 2017

NOTE: "FAIR" INDICATES FEW OR NO CLOUDS BELOW 12,000 FEET WITH NO
SIGNIFICANT WEATHER AND/OR OBSTRUCTIONS TO VISIBILITY.

* THESE STATIONS ARE NOT UNDER NWS QUALITY CONTROL. THEY ALSO MAY NOT
  REPORT WEATHER SUCH AS PRECIPITATION OR FOG.

INZ001>027-180000-
NORTHERN INDIANA

CITY           SKY/WX    TMP DP  RH WIND       PRES   REMARKS
GARY*          PTCLDY    68  36  30 S8        30.14S
VALPARAISO     CLEAR     65  41  41 SW10      30.16S
MICHIGAN CITY* CLEAR     61  41  48 S7        30.15S
LAPORTE*       CLEAR     63  41  45 SW8       30.16S
KNOX*          CLEAR     63  37  39 SW8       30.17S
SOUTH BEND     CLEAR     62  41  46 SW10      30.16S
ELKHART*       CLEAR     64  39  39 SW9       30.16S
GOSHEN         CLEAR     61  39  44 S9        30.17S
MONTICELLO*    CLEAR     61  38  43 S7        30.19S
LOGANSPORT*    CLEAR     59  41  51 S7        30.21S
WARSAW*        CLEAR     61  41  48 S3        30.19S
AUBURN*        CLEAR     61  37  41 SW5       30.19S
FORT WAYNE     PTCLDY    59  39  47 SW8       30.20S
HUNTINGTON*    CLEAR     61  38  42 CALM      30.20S
PERU/GRISSOM   CLEAR     57  41  55 SW7       30.20S

$$
INZ028>050-180000-
CENTRAL INDIANA

CITY           SKY/WX    TMP DP  RH WIND       PRES   REMARKS
KOKOMO*        CLEAR     60  41  49 SW8       30.22S
MUNCIE*        CLEAR     62  38  40 SW3       30.23S
INDIANAPOLIS   PTCLDY    59  40  49 SW7       30.23S

$$
MIZ043>046-050>051-056>058-064>065-071>073-077>080-180000-
SOUTHWEST LOWER MICHIGAN

CITY           SKY/WX    TMP DP  RH WIND       PRES   REMARKS
BATTLE CREEK   CLEAR     62  42  47 SW9       30.14S
BENTON HARBOR  CLEAR     63  41  44 SW6       30.13S
COLDWATER*     CLEAR     61  37  41 SW5       30.16S
HILLSDALE*     CLEAR     59  37  44 SW7       30.16S
HOLLAND        CLEAR     64  43  46 SW20      30.11S
GRAND RAPIDS   PTCLDY    63  43  48 SW14      30.10S
KALAMAZOO      CLEAR     63  38  39 SW8       30.14S
STURGIS*       CLEAR     60  42  51 SW8       30.15S
THREE RIVERS*  FAIR      62  43  50 SW5       30.15S

$$
OHZ001>008-015>018-024>025-180000-
NORTHWEST OHIO

CITY           SKY/WX    TMP DP  RH WIND       PRES   REMARKS
WAUSEON*       FAIR      61  39  44 SW8       30.17S
DEFIANCE       CLEAR     63  38  39 SW7       30.18S
FINDLAY        CLEAR     61  38  42 SW9       30.19S
TOLEDO EXPRESS CLEAR     63  42  46 SW6       30.17R
TOLEDO METCALF CLEAR     63  41  44 SW12      30.18R
LIMA           CLEAR     59  40  49 SW7       30.22S

$$
AND FOR LAKE MICHIGAN COASTAL AND OPEN LAKE BUOY OBSERVATIONS

STATION/POSITION TEMP    WIND        PRES    VSBY  WAVE
                 AIR SEA DIR/SP/G                  HT/PER
                 (F)     (DEG/KT/KT) (MB)    (MI)  (FT/S)
CALUMET HARBOR    68     200/  9/ 12 1019.4F
MICHIGAN CITY     66     190/ 11/ 13   N/A
BURNS HARBOR      67     220/ 13/ 17 1020.7F
SAINT JOSEPH      64     200/  7/ 12 1021.3
SOUTH LAKE BUOY   64 61  220/ 14/ 17 1018.7F         3/ 6
4 MI NW BRIDGMAN  62 58  210/ 10/ 10 1020.6          2/ 4
MICHIGAN CITY     63 58  210/ 10/ 14   N/A           2/ 3

$$
&&




USA.gov is the U.S. government's official web portal to all federal, state and local government web resources and services.